STARLINK-32315, 60740

Orbit data source: Space-Track

STARLINK-32315, 60740 is a payload satellite owned by SpaceX/Seattle (US) in LEO that was launched on Wed, 28 Aug 2024 UTC via an FALCON 9 launch vehicle from the Air Force Eastern Test Range (AFETR). Payload-class satellites include a variety of spacecraft equipped with specific instruments for various scientific and technological missions. These include communications satellites like Starlink; space stations such as the ISS; scientific satellites like the Hubble; Earth observation satellites from companies like Planet Labs, Umbra, and HawkEye 360; GPS; miniature CubeSats for education and research; and military/defense satellites.

Loading next visibility...
Identifier
60740, 2024-152W
Orbit
LEO
Country
Flag of USUS
Related business
Manufacturer
SpaceX/Seattle
Mission
Operational Commercial Communications
Bus & Motor
STARLINK V2M, Unknown motor
Mass
730 kg wet, ~700 kg dry
Launch date (UTC)
2024-08-28 (1 year ago)
Launch vehicle
FALCON 9
Launch site
Air Force Eastern Test Range (AFETR)
Object type
Payload
Rocket body
Debris
Shape & HBR
Box + 2 Pan, 17.7 m
Radar Cross Section
33.884 m², Large (>1 m²)

Expand to show TLE details & history
Last TLE update: 1 day ago

TLE from 1 day ago
0 STARLINK-32315
1 60740U 24152W   25286.17524431 -.00000168  00000-0  64428-5 0  9996
2 60740  53.1599 233.7662 0001128  94.7387 265.3743 15.30181309 64135
Epoch: 2025-10-13T04:12Z
TLE epoch observation values (Epoch: 2025-10-13T04:12:21.108Z)
Latitude
0.00002°
Longitude
148.69647°
Altitude
476.233 km
Speed
7.629 km/s
True Right ascension
15h 35m 03s
True Declination
0° 00' 00"
Sunlit
Object was in daylight at epoch
Visualization orbit readout
Latitude
Unknown
Longitude
Unknown
Altitude
Unknown
Speed
Unknown
Apparent Right ascension
Unknown
Apparent Declination
Unknown
Sunlit
N/A
Visualization observer readout
Local Sidereal Time
02:24:46
Azimuth
Unknown
Elevation
Unknown
Doppler factor
Unknown
Orbital elements
Apogee altitude
476.3 km
Perigee altitude
474.754 km
Semi-major axis
6,853.664 km
Eccentricity
0.00011
Inclination
53.1599°
RAAN
233.7662°
Arg. of periapsis
94.7387°
True anomaly
265.36142°
Mean anomaly
265.3743°
Eccentric anomaly
265.36786°
Mean motion
3.82524 °/min
Orbital period
94.11 mins
BSTAR
0.0000064428
Loading maneuver chart data...
Computing Atmospheric mass density...
Loading historical data...
Loading historical data...
Loading historical data...
Loading historical data...
Loading historical data...
Loading historical data...
Loading historical data...

Documentation

Showing up to 5 results
|